www.pogodaiklimat.ru

Погода и климат >> Архив погоды >> Россия >> Ненецкий АО >> Варандей


ПОГОДА в Варандее

  • Прогноз погоды в Варандее
  • Монитор погоды в Варандее

АРХИВ ПОГОДЫ в Варандее

Время (UTC), дата Ветер
(напр.,м/с)
 
Видим.   Явления Облачность Т
(С)
Тd
(С)
f
(%)
Тe
(С)
Тes
(С)
Комфортность P
(гПа)
Po
(гПа)
Тmin
(С)
Tmax
(С)
R
(мм)
R24
(мм)
S
(см)
09 12.03 Ю 5
{10}
10 км слаб. снег {метель} 10/8 300 м
[Frnb As op]
-4.3 -4.4 99 -12 -12 997.0 996.1
12 12.03 Ю 7
{10}
20 км {снег, метель} 10/10 300 м
[Cu Sc]
-3.4 -3.5 99 -12 -12 996.2 995.3
15 12.03 Ю 6 10 км 10/10 300 м
[Sc]
-3.7 -3.8 99 -11 -11 995.7 994.8 -3.4 3
18 12.03 Ю 4 20 км 10/10 300 м
[Sc]
-3.6 -3.6 100 -10 -10 995.0 994.1
21 12.03 З 7 10 км слаб. снег 10/10 210 м
[Frnb Ns]
-3.7 -3.7 100 -12 -12 994.3 993.4
00 13.03 СЗ 8 20 км {снег} 10/10 300 м
[Sc]
-5.8 -6.9 92 -15 -15 994.5 993.6
03 13.03 З 6
{10}
20 км 3/3 300 м
[Sc Ac trans]
-9.2 -9.6 97 -18 -18 995.1 994.2 -9.2 0.2 88
06 13.03 ЮЗ 4 500 м переохл. туман ?/? -15.5 -16.3 94 -23 -23 995.2 994.3 -17.0
09 13.03 ЮЗ 7 4000 м слаб. ливневой снег {туман} 9/9 270 м
[Cb cap]
-10.4 -10.8 97 -20 -20 994.9 994.0
12 13.03 ЮЗ 7 10 км слаб. ливневой снег {туман} 10/10 300 м
[Cb cap]
-9.4 -9.8 97 -19 -19 995.2 994.3
15 13.03 СЗ 11-14
{14}
4000 м слаб. ливневой снег {метель} 10/10 300 м
[Cb cap]
-11.5 -12.4 93 -23 -23 998.1 997.2 -7.4 0.2
18 13.03 СЗ 11-13
{14}
10 км позёмок {ливн. осадки} 9/9 300 м
[Cb cap]
-14.1 -15.4 90 -26 -26 1000.3 999.4
21 13.03 З 8-10
{13}
20 км позёмок ясно -14.6 -15.6 92 -25 -25 1002.3 1001.4
00 14.03 З 7
{10}
н/о {метель} н/о -12.4 -13.2 94 -22 -22 1005.1 1004.2
03 14.03 З 6 10 км {метель} ясно -12.8 -13.4 95 -22 -22 1007.1 1006.2 -14.9 0.0 89
06 14.03 З 6 10 км {метель} 3/3 300 м
[Sc Ac cast]
-11.1 -11.9 94 -20 -19 1008.8 1007.9 -15.7
09 14.03 З 6 20 км 8/3 300 м
[Cu hum Ac cast]
-9.8 -10.5 95 -18 -18 1010.8 1009.9
12 14.03 ЮЗ 7
{10}
20 км {метель} 8/3 600 м
[Sc Cs]
-12.4 -13.3 93 -22 -22 1012.4 1011.5
15 14.03 ЮЗ 6 20 км 3/3 300 м
[Sc diur, vesp]
-15.6 -16.4 94 -25 -25 1013.3 1012.4 -9.0
18 14.03 ЮЗ 7 20 км ясно -17.6 -18.6 92 -29 -29 1013.6 1012.7
21 14.03 Ю 7 20 км ясно -17.4 -18.5 91 -28 -28 1014.4 1013.5
00 15.03 Ю 7 н/о н/о -16.7 -17.7 92 -27 -27 1014.6 1013.6
03 15.03 Ю 7 20 км 3/0 2000 м
[Ac cast]
-16.5 -17.6 91 -27 -27 1015.0 1014.1 -17.9 89
06 15.03 Ю 9-11
{11}
20 км позёмок 3/0
[Cs]
-13.7 -14.7 92 -25 -25 1014.9 1014.0
09 15.03 Ю 8
{11}
20 км позёмок 3/0 2000 м
[Ac trans]
-11.5 -13.1 88 -21 -21 1015.1 1014.2
12 15.03 Ю 8
{11}
20 км позёмок 1/0
[Ci fib]
-11.6 -12.9 90 -22 -21 1015.1 1014.2
15 15.03 Ю 8
{11}
20 км позёмок ясно -13.1 -14.4 90 -23 -23 1015.1 1014.2 -10.9
18 15.03 Ю 8
{10}
20 км позёмок ясно -13.3 -14.7 89 -24 -24 1015.1 1014.2
21 15.03 Ю 7 20 км {метель} ясно -14.0 -15.6 88 -24 -24 1014.7 1013.8
00 16.03 Ю 7 н/о {метель} н/о -13.8 -15.1 90 -24 -24 1014.0 1013.0
03 16.03 Ю 7
{10}
20 км 4/0
[Cs]
-13.9 -15.6 87 -24 -24 1013.7 1012.8 -14.4 89
06 16.03 Ю 3
{10}
20 км 8/0
[Cs]
-11.4 -13.7 83 -17 -16 1013.4 1012.5 -14.8
09 16.03 Ю 8-12
{12}
20 км 8/0 2000 м
[Ac lent Ci fib]
-9.5 -11.3 87 -19 -19 1012.8 1011.9
12 16.03 Ю 8-10
{16}
20 км {метель} 9/8 300 м
[Sc Ac trans]
-9.4 -10.9 89 -19 -19 1012.2 1011.3
15 16.03 Ю 12-14
{15}
2000 м слаб. снег {метель} 10/10 300 м
[Frnb Ns]
-6.2 -6.4 98 -17 -17 1012.0 1011.1 -6.1 0.2
18 16.03 Ю 11-14
{15}
10 км сильный позёмок 10/10 300 м
[Sc]
-6.1 -6.5 97 -17 -17 1012.2 1011.3
21 16.03 Ю 9-11
{14}
20 км позёмок 10/10 300 м
[St]
-5.8 -6.2 97 -15 -15 1012.8 1011.9
00 17.03 Ю 10-12
{12}
4000 м слаб. снег {метель} 10/10 300 м
[Frnb Ns]
-4.7 -4.8 99 -14 -14 1013.5 1012.6
03 17.03 Ю 10-12
{13}
10 км позёмок {снег} 9/6 300 м
[Sc As trans]
-5.4 -5.7 98 -15 -15 1014.0 1013.1 -6.5 0.7 93
06 17.03 Ю 11-14
{14}
4000 м позёмок {снег} 9/6 300 м
[Sc Ac cast]
-6.0 -6.5 96 -16 -16 1014.8 1013.9
09 17.03 Ю 10-12
{14}
10 км позёмок 3/0 2000 м
[Ac cast]
-6.3 -7.0 95 -16 -16 1015.8 1014.9
12 17.03 Ю 10-12
{13}
20 км позёмок 6/0 2000 м
[Ac lent Ci fib]
-6.9 -7.4 96 -17 -17 1016.0 1015.1
15 17.03 Ю 7
{13}
20 км {метель} 9/0 2000 м
[Ac cast Cs]
-6.7 -7.6 93 -15 -15 1016.6 1015.7 -5.3
18 17.03 Ю 8
{11}
20 км {метель} 8/0
[Cs]
-5.7 -7.2 89 -15 -15 1016.2 1015.3
21 17.03 Ю 10-12
{12}
20 км 10/0 2000 м
[As op]
-5.1 -6.8 88 -15 -15 1015.5 1014.6
00 18.03 Ю 9-11
{12}
20 км 10/0 2000 м
[As op]
-6.2 -7.4 91 -16 -16 1015.3 1014.4
03 18.03 Ю 8
{11}
20 км 10/0 2000 м
[As op]
-5.8 -6.6 94 -15 -15 1015.5 1014.6 -6.8 102
06 18.03 Ю 8-10
{10}
10 км слаб. снег 10/0 2000 м
[As op]
-4.9 -5.4 96 -14 -14 1015.7 1014.8
09 18.03 ЮЗ 7
{10}
10 км слаб. снег 10/0 2000 м
[As op]
-3.2 -3.7 96 -11 -11 1016.6 1015.7
12 18.03 ЮЗ 7 20 км {снег} 10/0 2000 м
[As op]
-2.8 -3.2 97 -11 -11 1016.9 1016.0
15 18.03 Ю 7 10 км 10/4 300 м
[Sc As op]
-3.2 -3.4 99 -11 -11 1017.3 1016.4 -2.8 0.5
18 18.03 Ю 7 20 км 10/0 2000 м
[As op]
-3.0 -3.4 97 -11 -11 1017.3 1046.7
21 18.03 Ю 8 20 км 10/0 2000 м
[As op]
-2.6 -3.2 96 -11 -11 1017.4 1016.5
00 19.03 Ю 6 н/о н/о -3.1 -3.6 96 -11 -11 1016.0 1015.1
03 19.03 Ю 8 н/о н/о -1.8 -2.1 98 -10 -10 1015.1 1014.2 -3.9
06 19.03 Ю 8
{12}
н/о н/о -1.6 -2.3 95 -10 -10 1014.4 1013.5

 

Местоположение метеостанции Варандей (Ненецкий АО, Россия): широта 68.82 долгота 58.02 высота над уровнем моря 7 м.

В архиве по умолчанию представлена погода в Варандее за последнюю неделю. Архивные данные за месяц целиком и за предыдущие месяцы, начиная с января 2011 года, Вы можете получить, выбрав интересующий диапазон дат из раскрывающегося списка и нажав кнопку "Ввод!".


*Определитесь, кто Вы:
робот инопланетянин человек

Внимание! Время в таблицах - всемирное. Для получения местного времени необходимо прибавить поправку, которая равна 3 ч.

Смотрите также архив погоды в соседних городах и на ближайших метеорологических станциях:

Погода на Мысе Константиновском (Ненецкий АО, Россия) (106 км)
Погода на Мысе Белый Нос (Ненецкий АО, Россия) (122 км)
Погода в Хорей-Вере (Ненецкий АО, Россия) (155 км)
Погода в Ходоварихе (Ненецкий АО, Россия) (172 км)
Погода в Амдерме (Ненецкий АО, Россия) (179 км)
Погода в Имени Федорова (Ненецкий АО, Россия) (186 км)
Погода в Харуте (Ненецкий АО, Россия) (228 км)
Погода в Нарьян-Маре (Ненецкий АО, Россия) (245 км)
Погода в Сенгейском Шаре (Ненецкий АО, Россия) (277 км)
Погода в Усть-Каре (Ненецкий АО, Россия) (279 км)

Пояснения к столбцам:

Ветер - указаны скорость ветра в м/с - средняя за 10 мин, порывы в срок и между сроками (в фигурных скобках) и направление, откуда дует ветер: С - северный, СВ - северо-восточный, В - восточный, ЮВ - юго-восточный, Ю - южный, ЮЗ - юго-западный, З - западный, СЗ - северо-западный.
Видимость - горизонтальная дальность видимости в метрах или километрах. При видимости от 1 до 10 км при отсутствии осадков обычно наблюдается дымка, при ухудшении видимости до 1 км и менее - туман. В сухую погоду видимость может ухудшаться дымом, пылью или мглою.
Явления - указаны атмосферные явления, наблюдавшиеся в срок или в последний час перед сроком; фигурными скобками обозначены явления, наблюдавшиеся между сроками (за 1-3 часа до срока); квадратными скобками обозначены град или гололедные отложения с указанием их диаметра в мм.
Облачность - указаны через наклонную черту общая и нижняя облачность в баллах и высота нижней границы облаков в метрах; квадратными скобками обозначены формы облаков: Ci - перистые, Cs - перисто-слоистые, Cc - перисто-кучевые, Ac - высококучевые, As - высокослоистые, Sc - слоисто-кучевые, Ns - слоисто-дождевые, Cu - кучевые, Cb - кучево-дождевые. Подробнее классификацию облаков см. в Атласе облаков (PDF).
T - Температура воздуха - температура, измеренная на высоте 2 м над землей.
Td - Температура точки росы - температура, при понижении до которой содержащийся в воздухе водяной пар достигнет насыщения.
f - Относительная влажность воздуха - влажноcть воздуха, измеренная на высоте 2 м над землей.
Te - Эффективная температура - температура, которую ощущает одетый по сезону человек в тени. Характеристика душности погоды. При расчете учитывается влияние влажности воздуха и скорости ветра на теплоощущения человека.
Tes - Эффективная температура на солнце - температура, которую ощущает человек, с поправкой на солнечный нагрев. Характеристика знойности погоды. Зависит от высоты солнца над горизонтом, облачности и скорости ветра. Ночью, в пасмурную погоду, а также при ветре 12 м/с и более поправка равна нулю.
P - Атмосферное давление - приведенное к уровню моря атмосферное давление.
Po - Атмосферное давление - измеренное на уровне метеостанции атмосферное давление.
Tmin - Минимальная температура - минимум температуры воздуха на высоте 2 м над землей.
Tmax - Максимальная температура - максимум температуры воздуха на высоте 2 м над землей.
R - Количество осадков - Количество выпавших осадков за период времени, мм. При наведении курсора мыши на число - период времени, за который выпало указанное количество осадков.
R24 - Количество осадков - Количество выпавших осадков за 24 часа, мм.
S - Снежный покров - Высота снежного покрова, см. При наведении курсора мыши на число - состояние снежного покрова и степень покрытия местности в баллах.